Regional Weather Roundup
Issued by NWS

Home | Current Version | Previous Version | Text Only | Print | Product List | Glossary On
Versions: 1 2 3 4 5 6 7 8 9 10 11 12 13 14 15 16 17 18 19 20 21 22 23 24 25 26 27 28 29 30 31 32 33 34 35 36 37 38 39 40 41 42 43 44 45 46 47 48 49 50
000
ASUS44 KEWX 101811
RWRTX
SOUTH TEXAS REGIONAL WEATHER ROUNDUP
NATIONAL WEATHER SERVICE AUSTIN/SAN ANTONIO TX
1200 PM CST SAT DEC 10 2016

NOTE: "FAIR" INDICATED FEW OR NO CLOUDS BELOW 12,000 FEET WITH NO
SIGNIFICANT WEATHER AND/OR OBSTRUCTIONS TO VISIBILITY.

* - THESE STATIONS ARE NOT NWS OR FAA STATIONS...AND ARE NOT SUBJECT
    TO NWS AND FAA QUALITY CONTROL.

TXZ171-172-183>190-101900-
TEXAS HILL COUNTRY AND EDWARDS PLATEAU

CITY           SKY/WX    TMP DP  RH WIND       PRES   REMARKS
JUNCTION       CLOUDY    50  38  63 S12       30.33F WCI  46
6HR MIN TEMP:  35; 6HR MAX TEMP:  50;

*LLANO         CLOUDY   N/A N/A N/A SE8       30.41F
BURNET         CLOUDY    44  32  62 S8        30.40F WCI  39
6HR MIN TEMP:  38; 6HR MAX TEMP:  44;

*HORSESHOE BAY CLOUDY    48  37  65 S9        30.39F WCI  44
6HR MIN TEMP:  39; 6HR MAX TEMP:  48;

*KERRVILLE     CLOUDY    44  39  82 S5        30.38F WCI  41
6HR MIN TEMP:  36; 6HR MAX TEMP:  44;

*FREDERICKSBRG CLOUDY    47  38  73 SW12      30.36F WCI  41
6HR MIN TEMP:  37; 6HR MAX TEMP:  47;

*ROCKSPRINGS   CLOUDY    45  37  76 S9        30.35F WCI  40
*BOERNE STAGE  CLOUDY    39  37  93 CALM      30.40F
*CASTROVILLE   CLOUDY    42  41  97 CALM      30.42F FOG
HONDO          CLOUDY    45  41  86 E3        30.41F
6HR MIN TEMP:  43; 6HR MAX TEMP:  46;

*UVALDE        CLOUDY    44  35  70 CALM      30.41F
6HR MIN TEMP:  41; 6HR MAX TEMP:  45;

DEL RIO        CLOUDY    48  36  63 SE13      30.36F WCI  43
6HR MIN TEMP:  42; 6HR MAX TEMP:  48;

LAUGHLIN AFB   PTSUNNY   48  40  73 SE12      30.36F WCI  43
6HR MIN TEMP:  42; 6HR MAX TEMP:  48;

CARRIZO SPRGS  NOT AVBL
*EAGLE PASS    NOT AVBL
$$

TXZ173-191>194-202-209-217>225-228-101900-
CENTRAL AND SOUTH CENTRAL TEXAS

CITY           SKY/WX    TMP DP  RH WIND       PRES   REMARKS
GEORGETOWN     CLOUDY    46  28  49 SE5       30.41F WCI  44
AUSTIN/BERGSTM CLOUDY    49  33  54 SE5       30.41F WCI  47
6HR MIN TEMP:  39; 6HR MAX TEMP:  49;

AUSTIN/MABRY   CLOUDY    49  32  52 VRB3      30.42F
6HR MIN TEMP:  40; 6HR MAX TEMP:  49;

*AUSTIN/EXEC   CLOUDY    48  32  53 SE5       30.42F WCI  46
*LAGO VISTA    CLOUDY    46  31  55 SE3       30.39F
6HR MIN TEMP:  39; 6HR MAX TEMP:  46;

SAN MARCOS     CLOUDY    46  32  57 CALM      30.43F
NEW BRAUNFELS  CLOUDY    48  33  56 CALM      30.40F
6HR MIN TEMP:  41; 6HR MAX TEMP:  49;

RANDOLPH AFB   CLOUDY    48  36  64 NE3       30.40F
6HR MIN TEMP:  41; 6HR MAX TEMP:  48;

PT SAN ANTONIO CLOUDY    46  37  70 N3        30.38F
6HR MIN TEMP:  43; 6HR MAX TEMP:  46;

SAN ANTONIO    CLOUDY    46  36  68 VRB3      30.41F
6HR MIN TEMP:  42; 6HR MAX TEMP:  46;

STINSON FIELD  CLOUDY    50  36  58 NE6       30.39F WCI  48
6HR MIN TEMP:  44; 6HR MAX TEMP:  50;

*PLEASANTON    CLOUDY    49  36  62 CALM      30.41F
6HR MIN TEMP:  44; 6HR MAX TEMP:  49;

*LA GRANGE     CLOUDY    51  38  60 SE3       30.40F
6HR MIN TEMP:  40; 6HR MAX TEMP:  51;

*GIDDINGS      CLOUDY    50  35  55 E8        30.45F WCI  47
6HR MIN TEMP:  38; 6HR MAX TEMP:  50;

*GONZALES      NOT AVBL
$$

TXZ163>164-176>182-195>201-210>213-226-227-235-101900-
SOUTHEAST TEXAS

CITY           SKY/WX    TMP DP  RH WIND       PRES   REMARKS
COLLEGE STN    CLOUDY    48  30  49 SE13      30.43F WCI  43
6HR MIN TEMP:  37; 6HR MAX TEMP:  48;

*BRYAN         NOT AVBL
*CALDWELL      NOT AVBL
*CROCKETT      PTSUNNY   43  27  52 SE5       30.49F WCI  40
*BRENHAM       CLOUDY    50  36  58 E8        30.44F WCI  46
6HR MIN TEMP:  38; 6HR MAX TEMP:  50;

HUNTSVILLE     CLOUDY    46  25  43 E6        30.45F WCI  43
6HR MIN TEMP:  34; 6HR MAX TEMP:  46;

CONROE         CLOUDY    47  28  47 VRB3      30.47F
6HR MIN TEMP:  34; 6HR MAX TEMP:  47;

HOUSTON BUSH   CLOUDY    51  34  52 E8        30.46F
6HR MIN TEMP:  38; 6HR MAX TEMP:  51;

HOUSTON HOBBY  PTSUNNY   52  41  66 E12       30.45F
6HR MIN TEMP:  41; 6HR MAX TEMP:  52;

*HOUSTON SW AP CLOUDY    52  41  67 NE12      30.44F
6HR MIN TEMP:  38; 6HR MAX TEMP:  52;

PEARLAND       CLOUDY    53  41  63 E13       30.46F
6HR MIN TEMP:  43; 6HR MAX TEMP:  53;

HOUSTON HOOKS  CLOUDY    50  32  50 NE7       30.46F WCI  47
6HR MIN TEMP:  39; 6HR MAX TEMP:  50;

ELLINGTON FLD  PTSUNNY   52  39  62 E12       30.46F
SUGAR LAND     CLOUDY    51  41  68 E6        30.44F
6HR MIN TEMP:  36; 6HR MAX TEMP:  51;

*HOUSTON EXEC    N/A     50  37  62 E12       30.45F WCI  46
*CLEVELAND MUN CLOUDY    50  30  46 CALM      30.47F
6HR MIN TEMP:  32; 6HR MAX TEMP:  50;

*WHARTON       CLOUDY    55  44  67 E8        30.42F
6HR MIN TEMP:  40; 6HR MAX TEMP:  55;

*COLUMBUS      NOT AVBL
*EAGLE LAKE    NOT AVBL
$$

TXZ214>216-236>238-101900-
THE UPPER TEXAS COAST

CITY           SKY/WX    TMP DP  RH WIND       PRES   REMARKS
*ORANGE        SUNNY     51  23  33 E8        30.49F
6HR MIN TEMP:  33; 6HR MAX TEMP:  51;

PORT ARTHUR    SUNNY     52  29  41 E8        30.47F
6HR MIN TEMP:  35; 6HR MAX TEMP:  52;

GALVESTON      CLOUDY    58  47  66 E12       30.45F
6HR MIN TEMP:  45; 6HR MAX TEMP:  58;

ANGLETON       CLOUDY    58  47  66 E13       30.42F
6HR MIN TEMP:  43; 6HR MAX TEMP:  58;

*BAY CITY      CLOUDY    58  48  69 E13       30.41F
PALACIOS       CLOUDY    59  48  67 E12       30.39F
6HR MIN TEMP:  45; 6HR MAX TEMP:  59;

$$

TXZ229>234-239>247-101900-
TEXAS COASTAL BEND AND RIO GRANDE PLAINS

CITY           SKY/WX    TMP DP  RH WIND       PRES   REMARKS
VICTORIA       CLOUDY    55  45  68 E10       30.40F
6HR MIN TEMP:  46; 6HR MAX TEMP:  55;

*BEEVILLE      CLOUDY    54  44  67 NE5       30.38F
6HR MIN TEMP:  46; 6HR MAX TEMP:  54;

ROCKPORT       CLOUDY    57  49  74 NE14      30.36F
6HR MIN TEMP:  48; 6HR MAX TEMP:  57;

*PORT ARANSAS  CLOUDY    57  53  86 N9        30.35F
6HR MIN TEMP:  49; 6HR MAX TEMP:  58;

*PORT LAVACA   CLOUDY    56  49  78 NE14      30.39F
6HR MIN TEMP:  46; 6HR MAX TEMP:  56;

*INGLESIDE     CLOUDY    58  50  75 NE17      30.36F
CORPUS CHRISTI CLOUDY    55  47  74 N12       30.36F
6HR MIN TEMP:  47; 6HR MAX TEMP:  55;

CORPUS NAS     CLOUDY    56  53  90 N13       30.35F
6HR MIN TEMP:  49; 6HR MAX TEMP:  56;

*ROBSTOWN      CLOUDY    55  46  72 N7        30.38F
6HR MIN TEMP:  47; 6HR MAX TEMP:  55;

ALICE          CLOUDY    52  40  63 N8        30.38F
6HR MIN TEMP:  46; 6HR MAX TEMP:  52;

KINGSVILLE NAS CLOUDY    53  43  68 N12       30.37F
6HR MIN TEMP:  46; 6HR MAX TEMP:  53;

COTULLA        CLOUDY    46  42  86 NE3       30.42F FOG
6HR MIN TEMP:  45; 6HR MAX TEMP:  47;

*FAITH RANCH   CLOUDY    48  37  66 CALM      30.39F
LAREDO         LGT RAIN  46  43  89 N3        30.40F
6HR MIN TEMP:  44; 6HR MAX TEMP:  46; 6HR PCP: TRACE;

$$

TXZ248>255-101900-
DEEP SOUTH TEXAS

CITY           SKY/WX    TMP DP  RH WIND       PRES   REMARKS
BROWNSVILLE    PTSUNNY   62  50  64 NW9       30.33F
6HR MIN TEMP:  48; 6HR MAX TEMP:  63;

PORT ISABEL    CLOUDY    59  48  67 NW12      30.32F
6HR MIN TEMP:  48; 6HR MAX TEMP:  61;

*SOUTH PADRE     N/A     57  46  67 NW10      30.32
HARLINGEN      CLOUDY    58  45  62 NW13      30.33F
6HR MIN TEMP:  47; 6HR MAX TEMP:  59;

*HEBBRONC1F1C2F2C3F3C4F4C5F5C6F6C7M1C8M2C9!



USA.gov is the U.S. government's official web portal to all federal, state and local government web resources and services.